Overview Statistics Trail Chart Weather Telemetry Raw packets
 

This is the latest recevied weather packets stored in our database for station/object KQ4WWD. If no packets are shown the sender has not sent any weather packets the latest 10 day(s).

<< 1 2 3 4 5 6 7 >>
Time Temp. Humidity Pressure Rain* Wind** Luminosity Snow
1788644366 30° C 81% 1012.2 hPa 0 mm - 147 W/m² -
1788644062 30° C 80% 1012.4 hPa 0 mm - 152 W/m² -
1788643757 30° C 81% 1012.2 hPa 0 mm - 97 W/m² -
1788643452 30.56° C 82% 1012.4 hPa 0 mm - 75 W/m² -
1788643151 30.56° C 82% 1011.8 hPa 0 mm - 74 W/m² -
1788642847 30.56° C 82% 1012 hPa 0 mm - 81 W/m² -
1788642543 31.11° C 82% 1012.2 hPa 0 mm - 150 W/m² -
1788642243 31.67° C 80% 1012 hPa 0 mm - 184 W/m² -
1788641943 32.22° C 80% 1011.9 hPa 0 mm - 178 W/m² -
1788641637 32.22° C 80% 1011.8 hPa 0 mm - 289 W/m² -
1788641336 32.22° C 80% 1011.8 hPa 0 mm - 276 W/m² -
1788641033 32.78° C 79% 1011.8 hPa 0 mm - 244 W/m² -
1788640731 32.78° C 76% 1012 hPa 0 mm - 240 W/m² -
1788640427 32.22° C 76% 1011.9 hPa 0 mm - 159 W/m² -
1788640123 32.78° C 76% 1011.9 hPa 0 mm - 167 W/m² -
1788639823 33.33° C 74% 1011.8 hPa 0 mm - 187 W/m² -
1788639519 33.89° C 67% 1011.6 hPa 0 mm - 193 W/m² -
1788639214 33.89° C 66% 1011.9 hPa 0 mm - 197 W/m² -
1788638941 33.33° C 66% 1012 hPa 0 mm - 215 W/m² -
1788638610 33.89° C 65% 1012 hPa 0 mm - 228 W/m² -
1788638308 33.89° C 66% 1011.9 hPa 0 mm - 236 W/m² -
1788638003 33.89° C 66% 1012.1 hPa 0 mm - 250 W/m² -
1788637699 34.44° C 68% 1012.2 hPa 0 mm - 246 W/m² -
1788637399 35° C 64% 1012 hPa 0 mm - 273 W/m² -
1788637098 35.56° C 61% 1012 hPa 0 mm - 361 W/m² -

* Rain latest hour (hover to see other rain measurements)
** Current wind speed in m/s (hover to see current wind gust speed)